owner,sensor,date,latitude,longitude,vertical_datum,mass_concentration_of_oxygen_in_sea_water,qcFlag 
SCCF RECON,ioos:station:SCCF:11:1,2017-09-01T00:00:00Z,26.4679,-82.0631,1.7,8.65,1111122 
SCCF RECON,ioos:station:SCCF:11:1,2017-09-01T01:00:00Z,26.4679,-82.0631,1.78,8.61,1111122 
SCCF RECON,ioos:station:SCCF:11:1,2017-09-01T02:00:00Z,26.4679,-82.0631,1.85,7.39,1111122 
SCCF RECON,ioos:station:SCCF:11:1,2017-09-01T03:00:00Z,26.4679,-82.0631,1.891,5.59,1111122 
SCCF RECON,ioos:station:SCCF:11:1,2017-09-01T04:00:00Z,26.4679,-82.0631,1.96,4.52,1111122 
SCCF RECON,ioos:station:SCCF:11:1,2017-09-01T05:00:00Z,26.4679,-82.0631,1.99,4.3,1111122 
SCCF RECON,ioos:station:SCCF:11:1,2017-09-01T06:00:00Z,26.4679,-82.0631,2.03,5.9,1111122 
SCCF RECON,ioos:station:SCCF:11:1,2017-09-01T07:00:00Z,26.4679,-82.0631,2.0,7.02,1111122 
SCCF RECON,ioos:station:SCCF:11:1,2017-09-01T08:00:00Z,26.4679,-82.0631,1.93,6.14,1111122 
SCCF RECON,ioos:station:SCCF:11:1,2017-09-01T09:00:00Z,26.4679,-82.0631,1.9,5.24,1111122 
SCCF RECON,ioos:station:SCCF:11:1,2017-09-01T10:00:00Z,26.4679,-82.0631,1.91,4.49,1111122 
SCCF RECON,ioos:station:SCCF:11:1,2017-09-01T11:00:00Z,26.4679,-82.0631,1.96,5.0,1111122 
SCCF RECON,ioos:station:SCCF:11:1,2017-09-01T12:00:00Z,26.4679,-82.0631,2.047,3.02,1111122 
SCCF RECON,ioos:station:SCCF:11:1,2017-09-01T13:00:00Z,26.4679,-82.0631,2.14,3.96,1111122 
SCCF RECON,ioos:station:SCCF:11:1,2017-09-01T14:00:00Z,26.4679,-82.0631,2.2,3.82,1111122 
SCCF RECON,ioos:station:SCCF:11:1,2017-09-01T15:00:00Z,26.4679,-82.0631,2.19,3.87,1111122 
SCCF RECON,ioos:station:SCCF:11:1,2017-09-01T16:00:00Z,26.4679,-82.0631,2.159,4.72,1111122 
SCCF RECON,ioos:station:SCCF:11:1,2017-09-01T17:00:00Z,26.4679,-82.0631,2.119,5.44,1111122 
SCCF RECON,ioos:station:SCCF:11:1,2017-09-01T18:00:00Z,26.4679,-82.0631,2.06,6.77,1111122 
SCCF RECON,ioos:station:SCCF:11:1,2017-09-01T19:00:00Z,26.4679,-82.0631,1.95,7.55,1111122 
SCCF RECON,ioos:station:SCCF:11:1,2017-09-01T20:00:00Z,26.4679,-82.0631,1.84,7.98,1111122 
SCCF RECON,ioos:station:SCCF:11:1,2017-09-01T21:00:00Z,26.4679,-82.0631,1.72,8.17,1111122 
SCCF RECON,ioos:station:SCCF:11:1,2017-09-01T22:00:00Z,26.4679,-82.0631,1.611,8.07,1111122 
SCCF RECON,ioos:station:SCCF:11:1,2017-09-01T23:00:00Z,26.4679,-82.0631,1.56,6.71,1111122 
SCCF RECON,ioos:station:SCCF:11:1,2017-09-02T00:00:00Z,26.4679,-82.0631,1.64,7.14,1111122 
SCCF RECON,ioos:station:SCCF:11:1,2017-09-02T01:00:00Z,26.4679,-82.0631,1.8,7.73,1111122 
SCCF RECON,ioos:station:SCCF:11:1,2017-09-02T02:00:00Z,26.4679,-82.0631,1.899,7.58,1111122 
SCCF RECON,ioos:station:SCCF:11:1,2017-09-02T03:00:00Z,26.4679,-82.0631,1.97,7.21,1111122 
SCCF RECON,ioos:station:SCCF:11:1,2017-09-02T04:00:00Z,26.4679,-82.0631,2.06,6.53,1111122 
SCCF RECON,ioos:station:SCCF:11:1,2017-09-02T05:00:00Z,26.4679,-82.0631,2.09,6.61,1111122 
SCCF RECON,ioos:station:SCCF:11:1,2017-09-02T06:00:00Z,26.4679,-82.0631,2.04,6.39,1111122 
SCCF RECON,ioos:station:SCCF:11:1,2017-09-02T07:00:00Z,26.4679,-82.0631,1.96,6.05,1111122 
SCCF RECON,ioos:station:SCCF:11:1,2017-09-02T08:00:00Z,26.4679,-82.0631,1.903,5.78,1111122 
SCCF RECON,ioos:station:SCCF:11:1,2017-09-02T09:00:00Z,26.4679,-82.0631,1.847,5.53,1111122 
SCCF RECON,ioos:station:SCCF:11:1,2017-09-02T10:00:00Z,26.4679,-82.0631,1.84,5.4,1111122 
SCCF RECON,ioos:station:SCCF:11:1,2017-09-02T11:00:00Z,26.4679,-82.0631,1.88,5.58,1111122 
SCCF RECON,ioos:station:SCCF:11:1,2017-09-02T12:00:00Z,26.4679,-82.0631,1.937,5.38,1111122 
SCCF RECON,ioos:station:SCCF:11:1,2017-09-02T13:00:00Z,26.4679,-82.0631,2.01,5.24,1111122 
SCCF RECON,ioos:station:SCCF:11:1,2017-09-02T14:00:00Z,26.4679,-82.0631,2.08,4.25,1111122 
SCCF RECON,ioos:station:SCCF:11:1,2017-09-02T15:00:00Z,26.4679,-82.0631,2.16,4.84,1111122 
SCCF RECON,ioos:station:SCCF:11:1,2017-09-02T16:00:00Z,26.4679,-82.0631,2.2,5.2,1111122 
SCCF RECON,ioos:station:SCCF:11:1,2017-09-02T17:00:00Z,26.4679,-82.0631,2.17,5.7,1111122 
SCCF RECON,ioos:station:SCCF:11:1,2017-09-02T18:00:00Z,26.4679,-82.0631,2.09,5.93,1111122 
SCCF RECON,ioos:station:SCCF:11:1,2017-09-02T19:00:00Z,26.4679,-82.0631,1.97,6.45,1111122 
SCCF RECON,ioos:station:SCCF:11:1,2017-09-02T20:00:00Z,26.4679,-82.0631,1.86,6.84,1111122 
SCCF RECON,ioos:station:SCCF:11:1,2017-09-02T21:00:00Z,26.4679,-82.0631,1.74,6.81,1111122 
SCCF RECON,ioos:station:SCCF:11:1,2017-09-02T22:00:00Z,26.4679,-82.0631,1.64,6.82,1111122 
SCCF RECON,ioos:station:SCCF:11:1,2017-09-02T23:00:00Z,26.4679,-82.0631,1.58,6.23,1111122 
SCCF RECON,ioos:station:SCCF:11:1,2017-09-03T00:00:00Z,26.4679,-82.0631,1.58,6.68,1111122 
SCCF RECON,ioos:station:SCCF:11:1,2017-09-03T01:00:00Z,26.4679,-82.0631,1.62,6.29,1111122 
SCCF RECON,ioos:station:SCCF:11:1,2017-09-03T02:00:00Z,26.4679,-82.0631,1.769,6.05,1111122 
SCCF RECON,ioos:station:SCCF:11:1,2017-09-03T03:00:00Z,26.4679,-82.0631,1.9,6.39,1111122 
SCCF RECON,ioos:station:SCCF:11:1,2017-09-03T04:00:00Z,26.4679,-82.0631,1.98,6.07,1111122 
SCCF RECON,ioos:station:SCCF:11:1,2017-09-03T05:00:00Z,26.4679,-82.0631,2.021,5.18,1111122 
SCCF RECON,ioos:station:SCCF:11:1,2017-09-03T06:00:00Z,26.4679,-82.0631,2.04,5.42,1111122 
SCCF RECON,ioos:station:SCCF:11:1,2017-09-03T07:00:00Z,26.4679,-82.0631,1.998,5.58,1111122 
SCCF RECON,ioos:station:SCCF:11:1,2017-09-03T08:00:00Z,26.4679,-82.0631,1.91,5.36,1111122 
SCCF RECON,ioos:station:SCCF:11:1,2017-09-03T09:00:00Z,26.4679,-82.0631,1.86,4.92,1111122 
SCCF RECON,ioos:station:SCCF:11:1,2017-09-03T10:00:00Z,26.4679,-82.0631,1.823,3.93,1111122 
SCCF RECON,ioos:station:SCCF:11:1,2017-09-03T11:00:00Z,26.4679,-82.0631,1.83,4.71,1111122 
SCCF RECON,ioos:station:SCCF:11:1,2017-09-03T12:00:00Z,26.4679,-82.0631,1.89,4.89,1111122 
SCCF RECON,ioos:station:SCCF:11:1,2017-09-03T13:00:00Z,26.4679,-82.0631,1.98,4.55,1111122 
SCCF RECON,ioos:station:SCCF:11:1,2017-09-03T14:00:00Z,26.4679,-82.0631,2.07,5.02,1111122 
SCCF RECON,ioos:station:SCCF:11:1,2017-09-03T15:00:00Z,26.4679,-82.0631,2.18,5.02,1111122 
SCCF RECON,ioos:station:SCCF:11:1,2017-09-03T16:00:00Z,26.4679,-82.0631,2.22,5.04,1111122 
SCCF RECON,ioos:station:SCCF:11:1,2017-09-03T17:00:00Z,26.4679,-82.0631,2.2,4.97,1111122 
SCCF RECON,ioos:station:SCCF:11:1,2017-09-03T18:00:00Z,26.4679,-82.0631,2.12,5.25,1111122 
SCCF RECON,ioos:station:SCCF:11:1,2017-09-03T19:00:00Z,26.4679,-82.0631,2.01,5.38,1111122 
SCCF RECON,ioos:station:SCCF:11:1,2017-09-03T20:00:00Z,26.4679,-82.0631,1.88,5.54,1111122 
SCCF RECON,ioos:station:SCCF:11:1,2017-09-03T21:00:00Z,26.4679,-82.0631,1.74,5.7,1111122 
SCCF RECON,ioos:station:SCCF:11:1,2017-09-03T22:00:00Z,26.4679,-82.0631,1.62,5.9,1111122 
SCCF RECON,ioos:station:SCCF:11:1,2017-09-03T23:00:00Z,26.4679,-82.0631,1.52,6.01,1111122 
SCCF RECON,ioos:station:SCCF:11:1,2017-09-04T00:00:00Z,26.4679,-82.0631,1.49,5.93,1111122 
SCCF RECON,ioos:station:SCCF:11:1,2017-09-04T01:00:00Z,26.4679,-82.0631,1.55,5.01,1111122 
SCCF RECON,ioos:station:SCCF:11:1,2017-09-04T02:00:00Z,26.4679,-82.0631,1.68,5.59,1111122 
SCCF RECON,ioos:station:SCCF:11:1,2017-09-04T03:00:00Z,26.4679,-82.0631,1.82,5.95,1111122 
SCCF RECON,ioos:station:SCCF:11:1,2017-09-04T04:00:00Z,26.4679,-82.0631,1.931,5.41,1111122 
SCCF RECON,ioos:station:SCCF:11:1,2017-09-04T05:00:00Z,26.4679,-82.0631,2.03,4.85,1111122 
SCCF RECON,ioos:station:SCCF:11:1,2017-09-04T06:00:00Z,26.4679,-82.0631,2.07,4.91,1111122 
SCCF RECON,ioos:station:SCCF:11:1,2017-09-04T07:00:00Z,26.4679,-82.0631,2.035,4.96,1111122 
SCCF RECON,ioos:station:SCCF:11:1,2017-09-04T08:00:00Z,26.4679,-82.0631,1.96,4.79,1111122 
SCCF RECON,ioos:station:SCCF:11:1,2017-09-04T09:00:00Z,26.4679,-82.0631,1.9,4.56,1111122 
SCCF RECON,ioos:station:SCCF:11:1,2017-09-04T10:00:00Z,26.4679,-82.0631,1.857,4.25,1111122 
SCCF RECON,ioos:station:SCCF:11:1,2017-09-04T11:00:00Z,26.4679,-82.0631,1.811,4.23,1111122 
SCCF RECON,ioos:station:SCCF:11:1,2017-09-04T12:00:00Z,26.4679,-82.0631,1.825,4.32,1111122 
SCCF RECON,ioos:station:SCCF:11:1,2017-09-04T13:00:00Z,26.4679,-82.0631,1.91,4.64,1111122 
SCCF RECON,ioos:station:SCCF:11:1,2017-09-04T14:00:00Z,26.4679,-82.0631,2.03,5.13,1111122 
SCCF RECON,ioos:station:SCCF:11:1,2017-09-04T15:00:00Z,26.4679,-82.0631,2.15,4.24,1111122 
SCCF RECON,ioos:station:SCCF:11:1,2017-09-04T16:00:00Z,26.4679,-82.0631,2.241,4.94,1111122 
SCCF RECON,ioos:station:SCCF:11:1,2017-09-04T17:00:00Z,26.4679,-82.0631,2.288,4.26,1111122 
SCCF RECON,ioos:station:SCCF:11:1,2017-09-04T18:00:00Z,26.4679,-82.0631,2.26,5.63,1111122 
SCCF RECON,ioos:station:SCCF:11:1,2017-09-04T19:00:00Z,26.4679,-82.0631,2.18,6.18,1111122 
SCCF RECON,ioos:station:SCCF:11:1,2017-09-04T20:00:00Z,26.4679,-82.0631,2.02,6.32,1111122 
SCCF RECON,ioos:station:SCCF:11:1,2017-09-04T21:00:00Z,26.4679,-82.0631,1.855,6.4,1111122 
SCCF RECON,ioos:station:SCCF:11:1,2017-09-04T22:00:00Z,26.4679,-82.0631,1.71,6.33,1111122 
SCCF RECON,ioos:station:SCCF:11:1,2017-09-04T23:00:00Z,26.4679,-82.0631,1.599,6.21,1111122 
SCCF RECON,ioos:station:SCCF:11:1,2017-09-05T00:00:00Z,26.4679,-82.0631,1.53,6.01,1111122 
SCCF RECON,ioos:station:SCCF:11:1,2017-09-05T01:00:00Z,26.4679,-82.0631,1.56,5.88,1111122 
SCCF RECON,ioos:station:SCCF:11:1,2017-09-05T02:00:00Z,26.4679,-82.0631,1.651,5.68,1111122 
SCCF RECON,ioos:station:SCCF:11:1,2017-09-05T03:00:00Z,26.4679,-82.0631,1.789,6.05,1111122 
SCCF RECON,ioos:station:SCCF:11:1,2017-09-05T04:00:00Z,26.4679,-82.0631,1.919,5.55,1111122 
SCCF RECON,ioos:station:SCCF:11:1,2017-09-05T05:00:00Z,26.4679,-82.0631,2.009,5.6,1111122 
SCCF RECON,ioos:station:SCCF:11:1,2017-09-05T06:00:00Z,26.4679,-82.0631,2.079,4.33,1111122 
SCCF RECON,ioos:station:SCCF:11:1,2017-09-05T07:00:00Z,26.4679,-82.0631,2.08,5.0,1111122 
SCCF RECON,ioos:station:SCCF:11:1,2017-09-05T08:00:00Z,26.4679,-82.0631,2.031,5.37,1111122 
SCCF RECON,ioos:station:SCCF:11:1,2017-09-05T09:00:00Z,26.4679,-82.0631,1.95,4.82,1111122 
SCCF RECON,ioos:station:SCCF:11:1,2017-09-05T10:00:00Z,26.4679,-82.0631,1.88,4.74,1111122 
SCCF RECON,ioos:station:SCCF:11:1,2017-09-05T11:00:00Z,26.4679,-82.0631,1.8,4.44,1111122 
SCCF RECON,ioos:station:SCCF:11:1,2017-09-05T12:00:00Z,26.4679,-82.0631,1.76,4.08,1111122 
SCCF RECON,ioos:station:SCCF:11:1,2017-09-05T13:00:00Z,26.4679,-82.0631,1.82,4.54,1111122 
SCCF RECON,ioos:station:SCCF:11:1,2017-09-05T14:00:00Z,26.4679,-82.0631,1.96,5.22,1111122 
SCCF RECON,ioos:station:SCCF:11:1,2017-09-05T15:00:00Z,26.4679,-82.0631,2.12,5.17,1111122 
SCCF RECON,ioos:station:SCCF:11:1,2017-09-05T16:00:00Z,26.4679,-82.0631,2.23,4.91,1111122 
SCCF RECON,ioos:station:SCCF:11:1,2017-09-05T17:00:00Z,26.4679,-82.0631,2.31,4.92,1111122 
SCCF RECON,ioos:station:SCCF:11:1,2017-09-05T18:00:00Z,26.4679,-82.0631,2.32,4.89,1111122 
SCCF RECON,ioos:station:SCCF:11:1,2017-09-05T19:00:00Z,26.4679,-82.0631,2.3,6.42,1111122 
SCCF RECON,ioos:station:SCCF:11:1,2017-09-05T20:00:00Z,26.4679,-82.0631,2.194,7.18,1111122 
SCCF RECON,ioos:station:SCCF:11:1,2017-09-05T21:00:00Z,26.4679,-82.0631,2.01,6.84,1111122 
SCCF RECON,ioos:station:SCCF:11:1,2017-09-05T22:00:00Z,26.4679,-82.0631,1.85,6.9,1111122 
SCCF RECON,ioos:station:SCCF:11:1,2017-09-05T23:00:00Z,26.4679,-82.0631,1.74,6.58,1111122 
SCCF RECON,ioos:station:SCCF:11:1,2017-09-06T00:00:00Z,26.4679,-82.0631,1.603,6.64,1111122 
SCCF RECON,ioos:station:SCCF:11:1,2017-09-06T01:00:00Z,26.4679,-82.0631,1.567,6.36,1111122 
SCCF RECON,ioos:station:SCCF:11:1,2017-09-06T02:00:00Z,26.4679,-82.0631,1.63,5.74,1111122 
SCCF RECON,ioos:station:SCCF:11:1,2017-09-06T03:00:00Z,26.4679,-82.0631,1.784,6.0,1111122 
SCCF RECON,ioos:station:SCCF:11:1,2017-09-06T04:00:00Z,26.4679,-82.0631,1.909,5.61,1111122 
SCCF RECON,ioos:station:SCCF:11:1,2017-09-06T05:00:00Z,26.4679,-82.0631,2.03,5.56,1111122 
SCCF RECON,ioos:station:SCCF:11:1,2017-09-06T06:00:00Z,26.4679,-82.0631,2.14,5.43,1111122 
SCCF RECON,ioos:station:SCCF:11:1,2017-09-06T07:00:00Z,26.4679,-82.0631,2.14,5.53,1111122 
SCCF RECON,ioos:station:SCCF:11:1,2017-09-06T08:00:00Z,26.4679,-82.0631,2.12,5.03,1111122 
SCCF RECON,ioos:station:SCCF:11:1,2017-09-06T09:00:00Z,26.4679,-82.0631,2.032,5.06,1111122 
SCCF RECON,ioos:station:SCCF:11:1,2017-09-06T10:00:00Z,26.4679,-82.0631,1.919,4.69,1111122 
SCCF RECON,ioos:station:SCCF:11:1,2017-09-06T11:00:00Z,26.4679,-82.0631,1.825,4.65,1111122 
SCCF RECON,ioos:station:SCCF:11:1,2017-09-06T12:00:00Z,26.4679,-82.0631,1.78,4.13,1111122 
SCCF RECON,ioos:station:SCCF:11:1,2017-09-06T13:00:00Z,26.4679,-82.0631,1.8,4.66,1111122 
SCCF RECON,ioos:station:SCCF:11:1,2017-09-06T14:00:00Z,26.4679,-82.0631,1.9,4.95,1111122 
SCCF RECON,ioos:station:SCCF:11:1,2017-09-06T15:00:00Z,26.4679,-82.0631,2.048,5.2,1111122 
SCCF RECON,ioos:station:SCCF:11:1,2017-09-06T16:00:00Z,26.4679,-82.0631,2.18,4.3,1111122 
SCCF RECON,ioos:station:SCCF:11:1,2017-09-06T17:00:00Z,26.4679,-82.0631,2.3,4.82,1111122 
SCCF RECON,ioos:station:SCCF:11:1,2017-09-06T18:00:00Z,26.4679,-82.0631,2.37,4.35,1111122 
SCCF RECON,ioos:station:SCCF:11:1,2017-09-06T19:00:00Z,26.4679,-82.0631,2.38,5.32,1111122 
SCCF RECON,ioos:station:SCCF:11:1,2017-09-06T20:00:00Z,26.4679,-82.0631,2.338,6.51,1111122 
SCCF RECON,ioos:station:SCCF:11:1,2017-09-06T21:00:00Z,26.4679,-82.0631,2.18,6.75,1111122 
SCCF RECON,ioos:station:SCCF:11:1,2017-09-06T22:00:00Z,26.4679,-82.0631,2.013,6.77,1111122 
SCCF RECON,ioos:station:SCCF:11:1,2017-09-06T23:00:00Z,26.4679,-82.0631,1.873,6.57,1111122 
SCCF RECON,ioos:station:SCCF:11:1,2017-09-07T00:00:00Z,26.4679,-82.0631,1.74,6.1,1111122 
SCCF RECON,ioos:station:SCCF:11:1,2017-09-07T01:00:00Z,26.4679,-82.0631,1.649,5.78,1111122 
SCCF RECON,ioos:station:SCCF:11:1,2017-09-07T02:00:00Z,26.4679,-82.0631,1.65,5.96,1111122 
SCCF RECON,ioos:station:SCCF:11:1,2017-09-07T03:00:00Z,26.4679,-82.0631,1.76,5.44,1111122 
SCCF RECON,ioos:station:SCCF:11:1,2017-09-07T04:00:00Z,26.4679,-82.0631,1.914,5.63,1111122 
SCCF RECON,ioos:station:SCCF:11:1,2017-09-07T05:00:00Z,26.4679,-82.0631,2.04,4.93,1111122 
SCCF RECON,ioos:station:SCCF:11:1,2017-09-07T06:00:00Z,26.4679,-82.0631,2.13,5.14,1111122 
SCCF RECON,ioos:station:SCCF:11:1,2017-09-07T07:00:00Z,26.4679,-82.0631,2.19,5.07,1111122 
SCCF RECON,ioos:station:SCCF:11:1,2017-09-07T08:00:00Z,26.4679,-82.0631,2.189,5.41,1111122 
SCCF RECON,ioos:station:SCCF:11:1,2017-09-07T09:00:00Z,26.4679,-82.0631,2.071,4.89,1111122 
SCCF RECON,ioos:station:SCCF:11:1,2017-09-07T10:00:00Z,26.4679,-82.0631,1.95,4.57,1111122 
SCCF RECON,ioos:station:SCCF:11:1,2017-09-07T11:00:00Z,26.4679,-82.0631,1.84,4.44,1111122 
SCCF RECON,ioos:station:SCCF:11:1,2017-09-07T12:00:00Z,26.4679,-82.0631,1.73,4.06,1111122 
SCCF RECON,ioos:station:SCCF:11:1,2017-09-07T13:00:00Z,26.4679,-82.0631,1.66,4.03,1111122 
SCCF RECON,ioos:station:SCCF:11:1,2017-09-07T14:00:00Z,26.4679,-82.0631,1.69,4.14,1111122 
SCCF RECON,ioos:station:SCCF:11:1,2017-09-07T15:00:00Z,26.4679,-82.0631,1.83,4.82,1111122 
SCCF RECON,ioos:station:SCCF:11:1,2017-09-07T16:00:00Z,26.4679,-82.0631,2.02,5.15,1111122 
SCCF RECON,ioos:station:SCCF:11:1,2017-09-07T17:00:00Z,26.4679,-82.0631,2.152,4.95,1111122 
SCCF RECON,ioos:station:SCCF:11:1,2017-09-07T18:00:00Z,26.4679,-82.0631,2.24,5.22,1111122 
SCCF RECON,ioos:station:SCCF:11:1,2017-09-07T19:00:00Z,26.4679,-82.0631,2.29,5.07,1111122 
SCCF RECON,ioos:station:SCCF:11:1,2017-09-07T20:00:00Z,26.4679,-82.0631,2.27,6.37,1111122 
SCCF RECON,ioos:station:SCCF:11:1,2017-09-07T21:00:00Z,26.4679,-82.0631,2.21,6.82,1111122 
SCCF RECON,ioos:station:SCCF:11:1,2017-09-07T22:00:00Z,26.4679,-82.0631,2.03,6.46,1111122 
SCCF RECON,ioos:station:SCCF:11:1,2017-09-07T23:00:00Z,26.4679,-82.0631,1.9,6.37,1111122 
SCCF RECON,ioos:station:SCCF:11:1,2017-09-08T00:00:00Z,26.4679,-82.0631,1.788,6.19,1111122 
SCCF RECON,ioos:station:SCCF:11:1,2017-09-08T01:00:00Z,26.4679,-82.0631,1.67,5.37,1111122 
SCCF RECON,ioos:station:SCCF:11:1,2017-09-08T02:00:00Z,26.4679,-82.0631,1.63,4.67,1111122 
SCCF RECON,ioos:station:SCCF:11:1,2017-09-08T03:00:00Z,26.4679,-82.0631,1.663,5.47,1111122 
SCCF RECON,ioos:station:SCCF:11:1,2017-09-08T04:00:00Z,26.4679,-82.0631,1.79,5.16,1111122 
SCCF RECON,ioos:station:SCCF:11:1,2017-09-08T05:00:00Z,26.4679,-82.0631,1.9,5.3,1111122 
SCCF RECON,ioos:station:SCCF:11:1,2017-09-08T06:00:00Z,26.4679,-82.0631,2.03,4.89,1111122 
SCCF RECON,ioos:station:SCCF:11:1,2017-09-08T07:00:00Z,26.4679,-82.0631,2.12,5.16,1111122 
SCCF RECON,ioos:station:SCCF:11:1,2017-09-08T08:00:00Z,26.4679,-82.0631,2.159,5.14,1111122 
SCCF RECON,ioos:station:SCCF:11:1,2017-09-08T09:00:00Z,26.4679,-82.0631,2.07,4.82,1111122 
SCCF RECON,ioos:station:SCCF:11:1,2017-09-08T10:00:00Z,26.4679,-82.0631,1.99,4.42,1111122 
SCCF RECON,ioos:station:SCCF:11:1,2017-09-08T11:00:00Z,26.4679,-82.0631,1.88,4.28,1111122 
SCCF RECON,ioos:station:SCCF:11:1,2017-09-08T12:00:00Z,26.4679,-82.0631,1.74,3.79,1111122 
SCCF RECON,ioos:station:SCCF:11:1,2017-09-08T13:00:00Z,26.4679,-82.0631,1.63,4.01,1111122 
SCCF RECON,ioos:station:SCCF:11:1,2017-09-08T14:00:00Z,26.4679,-82.0631,1.59,4.12,1111122 
SCCF RECON,ioos:station:SCCF:11:1,2017-09-08T15:00:00Z,26.4679,-82.0631,1.668,4.51,1111122 
SCCF RECON,ioos:station:SCCF:11:1,2017-09-08T16:00:00Z,26.4679,-82.0631,1.82,5.63,1111122 
SCCF RECON,ioos:station:SCCF:11:1,2017-09-08T17:00:00Z,26.4679,-82.0631,1.97,5.47,1111122 
SCCF RECON,ioos:station:SCCF:11:1,2017-09-08T18:00:00Z,26.4679,-82.0631,2.07,4.97,1111122 
SCCF RECON,ioos:station:SCCF:11:1,2017-09-08T19:00:00Z,26.4679,-82.0631,2.13,3.56,1111122 
SCCF RECON,ioos:station:SCCF:11:1,2017-09-08T20:00:00Z,26.4679,-82.0631,2.19,4.94,1111122 
SCCF RECON,ioos:station:SCCF:11:1,2017-09-08T21:00:00Z,26.4679,-82.0631,2.14,5.84,1111122 
SCCF RECON,ioos:station:SCCF:11:1,2017-09-08T22:00:00Z,26.4679,-82.0631,2.02,5.31,1111122 
SCCF RECON,ioos:station:SCCF:11:1,2017-09-08T23:00:00Z,26.4679,-82.0631,1.87,5.27,1111122 
SCCF RECON,ioos:station:SCCF:11:1,2017-09-09T00:00:00Z,26.4679,-82.0631,1.74,5.02,1111122 
SCCF RECON,ioos:station:SCCF:11:1,2017-09-09T01:00:00Z,26.4679,-82.0631,1.63,5.27,1111122 
SCCF RECON,ioos:station:SCCF:11:1,2017-09-09T02:00:00Z,26.4679,-82.0631,1.538,5.12,1111122 
SCCF RECON,ioos:station:SCCF:11:1,2017-09-09T03:00:00Z,26.4679,-82.0631,1.5,5.33,1111122 
SCCF RECON,ioos:station:SCCF:11:1,2017-09-09T04:00:00Z,26.4679,-82.0631,1.561,5.47,1111122 
SCCF RECON,ioos:station:SCCF:11:1,2017-09-09T05:00:00Z,26.4679,-82.0631,1.693,5.44,1111122 
SCCF RECON,ioos:station:SCCF:11:1,2017-09-09T06:00:00Z,26.4679,-82.0631,1.83,5.6,1111122 
SCCF RECON,ioos:station:SCCF:11:1,2017-09-09T07:00:00Z,26.4679,-82.0631,1.949,5.37,1111122 
SCCF RECON,ioos:station:SCCF:11:1,2017-09-09T08:00:00Z,26.4679,-82.0631,2.01,4.61,1111122 
SCCF RECON,ioos:station:SCCF:11:1,2017-09-09T09:00:00Z,26.4679,-82.0631,2.0,5.34,1111122 
SCCF RECON,ioos:station:SCCF:11:1,2017-09-09T10:00:00Z,26.4679,-82.0631,1.91,5.02,1111122 
SCCF RECON,ioos:station:SCCF:11:1,2017-09-09T11:00:00Z,26.4679,-82.0631,1.77,4.93,1111122 
SCCF RECON,ioos:station:SCCF:11:1,2017-09-09T12:00:00Z,26.4679,-82.0631,1.64,4.69,1111122 
SCCF RECON,ioos:station:SCCF:11:1,2017-09-09T13:00:00Z,26.4679,-82.0631,1.53,4.42,1111122 
SCCF RECON,ioos:station:SCCF:11:1,2017-09-09T14:00:00Z,26.4679,-82.0631,1.45,5.3,1111122 
SCCF RECON,ioos:station:SCCF:11:1,2017-09-09T15:00:00Z,26.4679,-82.0631,1.45,5.11,1111122 
SCCF RECON,ioos:station:SCCF:11:1,2017-09-09T16:00:00Z,26.4679,-82.0631,1.55,6.0,1111122 
SCCF RECON,ioos:station:SCCF:11:1,2017-09-09T17:00:00Z,26.4679,-82.0631,1.69,6.15,1111122 
SCCF RECON,ioos:station:SCCF:11:1,2017-09-09T18:00:00Z,26.4679,-82.0631,1.79,6.24,1111122 
SCCF RECON,ioos:station:SCCF:11:1,2017-09-09T19:00:00Z,26.4679,-82.0631,1.865,6.23,1111122 
SCCF RECON,ioos:station:SCCF:11:1,2017-09-09T20:00:00Z,26.4679,-82.0631,1.91,6.43,1111122 
SCCF RECON,ioos:station:SCCF:11:1,2017-09-09T21:00:00Z,26.4679,-82.0631,1.94,6.45,1111122 
SCCF RECON,ioos:station:SCCF:11:1,2017-09-09T22:00:00Z,26.4679,-82.0631,1.876,6.59,1111122 
SCCF RECON,ioos:station:SCCF:11:1,2017-09-09T23:00:00Z,26.4679,-82.0631,1.76,6.73,1111122 
SCCF RECON,ioos:station:SCCF:11:1,2017-09-10T00:00:00Z,26.4679,-82.0631,1.62,6.77,1111122 
SCCF RECON,ioos:station:SCCF:11:1,2017-09-10T01:00:00Z,26.4679,-82.0631,1.512,6.59,1111122 
SCCF RECON,ioos:station:SCCF:11:1,2017-09-10T02:00:00Z,26.4679,-82.0631,1.43,6.39,1111122 
SCCF RECON,ioos:station:SCCF:11:1,2017-09-10T03:00:00Z,26.4679,-82.0631,1.32,6.16,1111122 
SCCF RECON,ioos:station:SCCF:11:1,2017-09-10T04:00:00Z,26.4679,-82.0631,1.23,6.32,1111122 
SCCF RECON,ioos:station:SCCF:11:1,2017-09-10T05:00:00Z,26.4679,-82.0631,1.19,5.97,1111122 
SCCF RECON,ioos:station:SCCF:11:1,2017-09-10T06:00:00Z,26.4679,-82.0631,1.228,6.13,1111122 
SCCF RECON,ioos:station:SCCF:11:1,2017-09-10T07:00:00Z,26.4679,-82.0631,1.307,6.13,1111122 
SCCF RECON,ioos:station:SCCF:11:1,2017-09-10T08:00:00Z,26.4679,-82.0631,1.372,6.09,1111122 
SCCF RECON,ioos:station:SCCF:11:1,2017-09-10T09:00:00Z,26.4679,-82.0631,1.369,6.13,1111122 
SCCF RECON,ioos:station:SCCF:11:1,2017-09-10T10:00:00Z,26.4679,-82.0631,1.27,6.04,1111122 
SCCF RECON,ioos:station:SCCF:11:1,2017-09-10T11:00:00Z,26.4679,-82.0631,1.159,6.0,1111122 
SCCF RECON,ioos:station:SCCF:11:1,2017-09-10T12:00:00Z,26.4679,-82.0631,1.0,6.05,1111122 
SCCF RECON,ioos:station:SCCF:11:1,2017-09-10T13:00:00Z,26.4679,-82.0631,0.86,6.0,1111122 
SCCF RECON,ioos:station:SCCF:11:1,2017-09-10T14:00:00Z,26.4679,-82.0631,0.74,6.17,1111122 
SCCF RECON,ioos:station:SCCF:11:1,2017-09-10T15:00:00Z,26.4679,-82.0631,0.67,6.42,1111122 
SCCF RECON,ioos:station:SCCF:11:1,2017-09-10T16:00:00Z,26.4679,-82.0631,0.62,6.5,1111122 
SCCF RECON,ioos:station:SCCF:11:1,2017-09-10T17:00:00Z,26.4679,-82.0631,0.541,6.65,1111122 
SCCF RECON,ioos:station:SCCF:11:1,2017-09-10T18:00:00Z,26.4679,-82.0631,0.49,6.93,1111122 
SCCF RECON,ioos:station:SCCF:11:1,2017-09-10T19:00:00Z,26.4679,-82.0631,0.479,6.83,1111122 
SCCF RECON,ioos:station:SCCF:11:1,2017-09-10T20:00:00Z,26.4679,-82.0631,0.46,6.86,1111122 
SCCF RECON,ioos:station:SCCF:11:1,2017-09-10T21:00:00Z,26.4679,-82.0631,0.499,6.77,1111122 
SCCF RECON,ioos:station:SCCF:11:1,2017-09-10T22:00:00Z,26.4679,-82.0631,0.51,6.61,1111122 
SCCF RECON,ioos:station:SCCF:11:1,2017-09-10T23:00:00Z,26.4679,-82.0631,0.56,6.77,1111122 
SCCF RECON,ioos:station:SCCF:11:1,2017-09-11T00:00:00Z,26.4679,-82.0631,0.987,6.69,1111122 
SCCF RECON,ioos:station:SCCF:11:1,2017-09-11T01:00:00Z,26.4679,-82.0631,1.436,6.58,1111122 
SCCF RECON,ioos:station:SCCF:11:1,2017-09-11T02:00:00Z,26.4679,-82.0631,1.75,6.55,1111122 
SCCF RECON,ioos:station:SCCF:11:1,2017-09-11T03:00:00Z,26.4679,-82.0631,1.968,6.63,1111122 
SCCF RECON,ioos:station:SCCF:11:1,2017-09-11T04:00:00Z,26.4679,-82.0631,2.136,6.63,1111122 
SCCF RECON,ioos:station:SCCF:11:1,2017-09-11T05:00:00Z,26.4679,-82.0631,2.289,6.36,1111122 
SCCF RECON,ioos:station:SCCF:11:1,2017-09-11T06:00:00Z,26.4679,-82.0631,2.36,6.47,1111122 
SCCF RECON,ioos:station:SCCF:11:1,2017-09-14T16:00:00Z,26.4679,-82.0631,2.001,5.82,1111122 
SCCF RECON,ioos:station:SCCF:11:1,2017-09-14T17:00:00Z,26.4679,-82.0631,1.851,6.23,1111122 
SCCF RECON,ioos:station:SCCF:11:1,2017-09-14T18:00:00Z,26.4679,-82.0631,1.723,6.52,1111122 
SCCF RECON,ioos:station:SCCF:11:1,2017-09-14T19:00:00Z,26.4679,-82.0631,1.634,6.57,1111122 
SCCF RECON,ioos:station:SCCF:11:1,2017-09-14T20:00:00Z,26.4679,-82.0631,1.63,5.6,1111122 
SCCF RECON,ioos:station:SCCF:11:1,2017-09-14T21:00:00Z,26.4679,-82.0631,1.72,7.14,1111122 
SCCF RECON,ioos:station:SCCF:11:1,2017-09-14T22:00:00Z,26.4679,-82.0631,1.867,5.44,1111122 
SCCF RECON,ioos:station:SCCF:11:1,2017-09-14T23:00:00Z,26.4679,-82.0631,1.997,5.88,1111122 
SCCF RECON,ioos:station:SCCF:11:1,2017-09-15T00:00:00Z,26.4679,-82.0631,2.1,5.73,1111122 
SCCF RECON,ioos:station:SCCF:11:1,2017-09-15T01:00:00Z,26.4679,-82.0631,1.0,-9999.0,1111122 
SCCF RECON,ioos:station:SCCF:11:1,2017-09-15T02:00:00Z,26.4679,-82.0631,2.23,5.02,1111122 
SCCF RECON,ioos:station:SCCF:11:1,2017-09-15T03:00:00Z,26.4679,-82.0631,1.0,-9999.0,1111122 
SCCF RECON,ioos:station:SCCF:11:1,2017-09-15T04:00:00Z,26.4679,-82.0631,2.16,4.8,1111122 
SCCF RECON,ioos:station:SCCF:11:1,2017-09-15T05:00:00Z,26.4679,-82.0631,1.0,-9999.0,1111122 
SCCF RECON,ioos:station:SCCF:11:1,2017-09-15T06:00:00Z,26.4679,-82.0631,1.0,-9999.0,1111122 